Location: Lewisville
(33.0462°N, 96.9942°W)
Time: 09:30:50
(UTC-06:00)

Envisat - Pass Details

Date: 07 October 2021
Orbit: 764 x 766 km, 98.2° (Epoch: 26 November)

Event Time Altitude Azimuth Distance (km) Brightness Sun altitude
Rises 06:34:07 0° 11° (N) 3,236 6.4 -11.8°
Reaches altitude 10° 06:36:25 10° 11° (N) 2,306 5.6 -11.3°
Maximum altitude 06:41:31 86° 284° (WNW) 771 3.0 -10.3°
Drops below altitude 10° 06:46:34 10° 195° (SSW) 2,291 5.3 -9.2°
Sets 06:48:52 0° 195° (SSW) 3,213 6.1 -8.7°
